#timestamp,LO_Frequency,Hit,StdDev 
1685206815.4,286047000.3,N
1685206835.2,286047000.9,N
1685206855.1,286046999.7,N
1685206856.0,286046999.7,N
1685206875.8,286047000.0,N
1685206895.6,286047000.2,N
1685206915.5,286047000.4,N
1685206935.3,286047000.2,N
1685206955.1,286046998.1,N
1685206975.9,286046998.2,N
1685206995.7,286046998.4,N
1685207015.6,286046998.9,N
1685207035.4,286047000.8,N
1685207055.2,286046998.1,N
1685207075.1,286047001.1,N
1685207076.0,286047001.1,N
1685207095.8,286047001.2,N
1685207115.6,286047000.9,N
1685207135.5,286047000.3,N
1685207155.3,286047000.9,N
1685207175.2,286046999.8,N
1685207195.9,286047000.5,N
1685207215.7,286047000.7,N
1685207235.6,286047001.1,N
1685207255.4,286047001.0,N
1685207275.2,286047000.0,N
1685207295.1,286047000.6,N
1685207296.0,286047000.6,N
1685207315.8,286047000.8,N
1685207335.7,286047000.6,N
1685207355.5,286047001.0,N
1685207375.3,286047000.4,N
1685207395.2,286046999.9,N
1685207415.0,286047001.1,N
1685207415.9,286047001.1,N
1685207435.8,286046999.1,N
1685207455.6,286046998.6,N
1685207475.4,286046998.7,N
1685207495.3,286046998.4,N
1685207515.1,286047001.2,N
1685207535.8,286046998.1,N
1685207555.7,286046998.5,N
1685207575.5,286047000.9,N
1685207595.4,286047001.0,N
1685207615.2,286047000.6,N
1685207635.0,286047000.9,N
1685207635.9,286047000.9,N
1685207655.8,286047001.1,N
1685207675.6,286047000.3,N
1685207695.5,286046998.3,N
1685207715.3,286046999.3,N
1685207735.1,286046998.9,N
1685207755.9,286046998.9,N
1685207775.7,286046999.0,N
1685207795.6,286046998.7,N
1685207815.4,286046999.2,N
1685207835.2,286046999.1,N
1685207855.1,286046999.2,N
1685207856.0,286046999.2,N
1685207875.8,286046998.7,N
1685207895.7,286046999.1,N
1685207915.5,286046996.6,Y
1685207935.3,286046999.1,P
1685207955.2,286046999.0,P
1685207975.0,286046999.4,N
1685207975.9,286046999.4,N
1685207995.8,286046997.1,Y
1685208015.6,286046999.3,P
1685208035.4,286046996.5,P
1685208055.3,286046997.7,N
1685208075.1,286046999.6,N
1685208095.8,286046997.7,N
1685208115.7,286046996.9,N
1685208135.5,286046999.3,N
1685208155.4,286046998.4,N
1685208175.2,286046999.0,N
1685208195.0,286046998.6,N
1685208195.9,286046998.6,N
1685208215.8,286046997.0,Y
1685208235.6,286046998.3,P
1685208255.5,286046999.4,P
1685208275.3,286046999.2,N
1685208295.1,286046997.0,Y
1685208315.9,286046999.3,P
1685208335.7,286046998.4,P
1685208355.6,286046999.1,N
1685208375.4,286046999.4,N
1685208395.2,286047001.1,N
1685208415.1,286046998.9,N
1685208416.0,286046998.9,N
1685208435.8,286046998.6,N
1685208455.7,286046998.8,N
1685208475.5,286046999.5,N
1685208495.3,286046997.1,Y
1685208515.2,286046999.3,P
1685208535.0,286046998.1,P
1685208535.9,286046998.1,P
1685208555.8,286046999.0,N
1685208575.6,286046999.0,N
1685208595.4,286046998.5,Y
1685208615.3,286046998.1,P
1685208635.1,286047000.8,N
1685208655.8,286047001.1,N
1685208675.7,286047000.7,N
1685208695.5,286046999.8,N
1685208715.4,286047000.1,N
1685208735.2,286047000.3,N
1685208755.0,286047000.2,N
1685208755.9,286047000.2,N
1685208775.8,286047000.3,N
1685208795.6,286047000.7,N
1685208815.5,286046999.9,N
1685208835.3,286046999.7,N
1685208855.1,286047000.2,N
1685208875.9,286047000.3,N
1685208895.7,286047000.0,N
1685208915.5,286046999.4,N
1685208935.4,286046998.5,N
1685208955.2,286046999.4,N
1685208975.1,286046996.9,Y
1685208976.0,286046996.9,P
1685208995.8,286046996.8,N
1685209015.6,286046997.7,N
1685209035.5,286046996.9,N
1685209055.3,286046997.2,N
1685209075.2,286046997.3,N
1685209095.9,286046997.0,N
1685209115.7,286046996.7,Y
1685209135.6,286047000.5,P
1685209155.4,286047000.8,N
1685209175.2,286047000.2,N
1685209195.1,286047000.4,N
1685209196.0,286047000.4,N
1685209215.8,286047002.8,N
1685209235.7,286047002.7,N
1685209255.5,286047000.1,N
1685209275.3,286047000.3,N
1685209295.2,286046998.5,N
1685209315.0,286047000.9,N
1685209315.9,286047000.9,N
1685209335.8,286046998.2,N
1685209355.6,286046998.1,N
1685209375.4,286046998.6,N
1685209395.3,286046998.7,N
1685209415.1,286046998.9,N
1685209435.8,286046998.4,N
1685209455.7,286046999.8,N
1685209475.5,286047000.6,N
1685209495.3,286047000.8,N
1685209515.2,286047000.8,N
1685209535.0,286047000.4,N
1685209535.9,286047000.4,N
1685209555.8,286047002.0,N
1685209575.6,286047001.5,N
1685209595.4,286047002.5,N
1685209615.3,286047000.1,N
1685209635.1,286047000.9,N
1685209655.9,286046998.5,N
1685209675.7,286046998.6,N
1685209695.5,286047000.7,N
1685209715.4,286047001.2,N
1685209735.2,286046998.2,N
1685209755.0,286046998.9,N
1685209755.9,286046998.9,N
1685209775.8,286046999.4,N
1685209795.6,286046999.2,N
1685209815.5,286046996.7,N
1685209835.3,286046999.2,N
1685209855.1,286046999.5,N
1685209875.9,286046999.6,N
1685209895.7,286046998.5,N
1685209915.5,286047000.8,N
1685209935.4,286047000.6,N
1685209955.2,286047000.6,N
1685209975.0,286047000.3,N
1685209976.0,286047000.3,N
1685209995.8,286047000.6,N
1685210015.6,286047000.1,N
1685210035.5,286047000.5,N
1685210055.3,286047001.2,N
1685210075.1,286047000.6,N
1685210095.9,286046999.7,N
1685210115.7,286047002.7,N
1685210135.6,286047002.7,N
1685210155.4,286047000.6,N
1685210175.2,286047000.3,N
1685210195.1,286047000.3,N
1685210196.0,286047000.3,N
1685210215.8,286047000.8,N
1685210235.7,286047000.5,N
1685210255.5,286047001.2,N
1685210275.3,286046999.4,N
1685210295.2,286046996.6,Y
1685210315.0,286046997.4,P
1685210315.9,286046997.4,N
1685210335.8,286046996.8,N
1685210355.6,286046997.3,N
1685210375.4,286046996.6,N
1685210395.3,286046997.7,N
